Regional Weather Roundup
Issued by NWS Jackson, KY

Home | Current Version | Previous Version | Text Only | Print | Product List | Glossary On
Versions: 1 2 3 4 5 6 7 8 9 10 11 12 13 14 15 16 17 18 19 20 21 22 23 24 25 26 27 28 29 30 31 32 33 34 35 36 37 38 39 40 41 42 43 44 45 46 47 48 49 50
000
ASUS43 KJKL 060310
RWRJKL

EAST KENTUCKY HOURLY WEATHER ROUNDUP
NATIONAL WEATHER SERVICE JACKSON KY
1000 PM EST THU MAR 05 2015

NOTE: "FAIR" INDICATES FEW OR NO CLOUDS BELOW 12,000 FEET WITH
NO SIGNIFICANT WEATHER AND/OR OBSTRUCTIONS TO VISIBILITY.

* THESE REPORTS ARE NOT UNDER NWS QUALITY CONTROL AND MAY NOT
  REPORT WEATHER SUCH AS PRECIPITATION AND FOG.

KYZ079-080-083-085-087-088-110-112-115-119-120-060400
...EASTERN KENTUCKY...

CITY           SKY/WX    TMP DP  RH WIND       PRES   REMARKS
JACKSON        PTCLDY    14   7  73 CALM      30.48R
LONDON         PTCLDY    12   5  73 CALM      30.49R
SOMERSET*      PTCLDY    12  12 100 CALM      30.53S
MONTICELLO*    FOG       -2  -8  78 CALM      30.54S VSB 1/4
MIDDLESBORO*   FLURRIES  20  14  76 N6        30.49R WCI  13
HAZARD APT*    CLEAR     16  12  86 CALM      30.49R
BLACK MTN*       N/A     10   9  92 N5          N/A  WCI   2
PIKEVILLE APT* FLURRIES  16  10  79 NW6       30.47R WCI   7
BIG SANDY*     CLOUDY    17  11  77 CALM      30.50R
MOREHEAD APT*  MOCLDY    16   7  67 CALM      30.53S
$$

KYZ035-036-041-042-044-050-067-078-099-060400
...CENTRAL KENTUCKY...

CITY           SKY/WX    TMP DP  RH WIND       PRES   REMARKS
MT STERLING*   MOCLDY     5   3  92 CALM      30.52S
FLEMING/MASON* CLEAR     12   5  73 NE7       30.54R WCI   2
DANVILLE*      CLOUDY    12  10  92 CALM      30.52R
RICHMOND*      MOCLDY    12   9  85 CALM      30.50R
LEXINGTON      PTCLDY    12   9  87 NW3       30.51S
FRANKFORT      PTCLDY     6   2  83 NE3       30.52R
$$

KYZ091>093-OHZ055-061-077-WVZ005-015-034-035-042-060400
...SOUTHERN OHIO/WEST VIRGINIA...

CITY           SKY/WX    TMP DP  RH WIND       PRES   REMARKS
COVINGTON      CLEAR     14   3  61 N6        30.52R WCI   5
COLUMBUS       CLEAR     14   3  61 CALM      30.52R
DAYTON         CLEAR     12   4  70 W3        30.52R
WILMINGTON     PTCLDY     7   0  73 CALM      30.51R
HUNTINGTON     CLEAR     13  11  92 CALM      30.52R FOG
CHARLESTON     LGT SNOW  19  14  81 NW3       30.50R
PINEVILLE*     LGT SNOW  20  16  86 MISG      30.47R
BECKLEY        LGT SNOW  14   9  80 NW8       30.35R WCI   3
BLUEFIELD      LGT SNOW  17  12  80 NW9       30.31R WCI   6
$$

VAZ002-007-008-TNZ017-027-036-066-071-060400
...SOUTHWEST VIRGINIA/EAST TENNESSEE...

CITY           SKY/WX    TMP DP  RH WIND       PRES   REMARKS
WISE*          LGT SNOW  18  16  93 N6        30.35S WCI   9
JONESVILLE*    CLOUDY    19  16  86 NW6       30.46R WCI  11
ABINGDON*      CLOUDY    22  17  82 N5        30.36R WCI  15
BRISTOL        CLOUDY    22  16  78 NW8       30.42R WCI  12
KNOXVILLE      MOCLDY    22  17  81 N10       30.43R WCI  11
OAK RIDGE      PTCLDY    22  15  75 VRB5      30.47R WCI  16
CROSSVILLE     CLOUDY    17  12  80 NE9       30.40S WCI   6
NASHVILLE      MOCLDY    19   8  62 N8        30.54S WCI   9
$$

...KEY TO REMARKS...
VSB - VISIBILITY IN MILES
WCI - WIND CHILL INDEX
HX  - HEAT INDEX

$$


USA.gov is the U.S. government's official web portal to all federal, state and local government web resources and services.